Location: Degersen
(52.2871°N, 9.5716°E)
Time: 00:16:34
(UTC+00:00)

Thor Agena Rocket - Pass Details

Date: 20 January 2026
Orbit: 755 x 802 km, 99.1° (Epoch: 9 February)

Event Time Altitude Azimuth Distance (km) Brightness Sun altitude
Rises 06:11:16 0° 15° (NNE) 3,249 6.7 -10.1°
Reaches altitude 10° 06:13:34 10° 15° (NNE) 2,325 6.0 -9.8°
Maximum altitude 06:18:42 85° 288° (WNW) 788 3.5 -9.1°
Drops below altitude 10° 06:23:52 10° 201° (SSW) 2,339 6.0 -8.3°
Sets 06:26:11 0° 201° (SSW) 3,270 6.8 -8.0°
